Regional Weather Roundup
Issued by NWS

Home | Current Version | Previous Version | Graphics & Text | Print | Product List | Glossary On
Versions: 1 2 3 4 5 6 7 8 9 10 11 12 13 14 15 16 17 18 19 20 21 22 23 24 25 26 27
000
ASUS45 KCYS 281510
RWRWY

WYOMING REGIONAL WEATHER ROUNDUP
NATIONAL WEATHER SERVICE CHEYENNE WY
900 AM MDT SAT MAY 28 2016

NOTE:  "FAIR" INDICATES FEW OR NO CLOUDS BELOW 12,000 FEET
WITH NO SIGNIFICANT WEATHER AND/OR OBSTRUCTIONS TO VISIBILITY.

WYZ001-281600-
YELLOWSTONE NATIONAL PARK

CITY           SKY/WX    TMP DP  RH WIND       PRES   REMARKS
LK YELLOWSTONE   N/A     39  23  52 VRB7      30.11R WCI  34
W YELLOWSTONE  NOT AVBL

$$
WYZ002>013-054>058-071-098>099-281600-
NORTHERN WYOMING

CITY           SKY/WX    TMP DP  RH WIND       PRES   REMARKS
JACKSON        SUNNY     48  28  46 SW9       30.08
CODY           FAIR      50  45  81 N3        30.01R
GREYBULL       CLOUDY    51  48  89 CALM      29.98R
WORLAND        FAIR      54  45  71 N3        29.99R
SHERIDAN       PTSUNNY   56  44  64 NW15      29.99R
BUFFALO        FAIR      53  44  71 N16G24    30.01R
GILLETTE       FAIR      57  46  66 N8        29.96R
HULETT         CLOUDY    54  46  76 CALM      29.97R
NEWCASTLE      FAIR      55  43  62 W6        29.95R

$$
WYZ014>020-022>026-101>103-281600-
CENTRAL WYOMING

CITY           SKY/WX    TMP DP  RH WIND       PRES   REMARKS
BIG PINEY      PTSUNNY   48  34  58 SE5       30.11R
PINEDALE       FAIR      46  30  53 N3        30.11S
DUBOIS         FAIR      48  21  34 NW16G24   30.05R
LANDER         FAIR      54  40  59 CALM      30.00S
RIVERTON       FAIR      56  42  59 VRB3      30.01R
CASPER         FAIR      56  40  55 SW12      29.98S
DOUGLAS          N/A    N/A N/A N/A MISG      29.98S

$$
WYZ021-027>030-104>119-281600-
SOUTHERN WYOMING

CITY           SKY/WX    TMP DP  RH WIND       PRES   REMARKS
EVANSTON       PTSUNNY   48  36  63 SW10      30.11R
KEMMERER         N/A     46  36  66 W5        30.13R
FORT BRIDGER   SUNNY     52  39  62 W12       30.14S
ROCK SPRINGS   FAIR      50  36  58 W14       30.10R
DIXON          FAIR      49  39  67 CALM      30.14R
RAWLINS        FAIR      53  37  54 W15       30.09R
SARATOGA       FAIR      52  36  54 W18       30.11R
LARAMIE        FAIR      52  34  50 SW9       30.07R
CHEYENNE       CLOUDY    56  37  49 W8        30.04R
TORRINGTON     FAIR      56  48  74 VRB5      29.96R
PINE BLUFFS    FAIR      59  41  51 NW10      30.01R

$$




USA.gov is the U.S. government's official web portal to all federal, state and local government web resources and services.